Weather History for KMWM - April, 2014

Change the Weather History Date:

Sunday, April 27, 2014

  Actual Average Record
Temperature  
Mean Temperature 45 °F -  
Max Temperature 48 °F 65 °F 87 °F (1977)
Min Temperature 42 °F 41 °F 23 °F (1950)
Degree Days  
Heating Degree Days 20    
Moisture  
Dew Point 40 °F    
Average Humidity 83    
Maximum Humidity 100    
Minimum Humidity 57    
Precipitation  
Precipitation 0.46 in - - ()
Sea Level Pressure  
Sea Level Pressure 29.58 in    
Wind  
Wind Speed 23 mph (East)    
Max Wind Speed 30 mph    
Max Gust Speed 47 mph    
Visibility 9 miles    
Events Rain , Thunderstorm    
Averages and records for this station are not official NWS values.
T = Trace of Precipitation, MM = Missing Value Source: NWS Daily Summary

Daily Weather History Graph

Daily Weather History Graph

Search for Another Location

Airport or City:

Trip Planner

Search our weather history database for the weather conditions in past years. The results will help you decide how hot, cold, wet, or windy it might be!

Date:

Astronomy

Apr. 27, 2014 Rise Set
Actual Time 6:18 AM CDT 8:18 PM CDT
Civil Twilight 5:46 AM CDT 8:50 PM CDT
Nautical Twilight 5:08 AM CDT 9:28 PM CDT
Astronomical Twilight 4:26 AM CDT 10:10 PM CDT
Moon 5:23 AM CDT (4/27) 6:50 PM CDT (4/27)
Length of Visible Light 15h 03m
Length of Day
14h 00m
Waning Crescent, 3% of the Moon is Illuminated
Apr 27
Waning Crescent
Apr 29
New
May 6
First Quarter
May 14
Full
May 21
Last Quarter

Hourly Weather History & Observations

Time (CDT) Temp. Windchill Dew Point Humidity Pressure Visibility Wind Dir Wind Speed Gust Speed Precip Events Conditions
12:12 AM 48.2 °F - 37.4 °F 66% 29.73 in 10.0 mi East 28.8 mph 39.1 mph N/A   Overcast
12:32 AM 48.2 °F - 37.4 °F 66% 29.73 in 10.0 mi East 24.2 mph 34.5 mph N/A Thunderstorm Overcast
12:53 AM 48.2 °F - 35.6 °F 62% 29.72 in 10.0 mi East 28.8 mph 38.0 mph N/A Thunderstorm Thunderstorm
1:12 AM 48.2 °F - 33.8 °F 58% 29.71 in 10.0 mi ESE 27.6 mph 41.4 mph N/A Thunderstorm Mostly Cloudy
1:32 AM 46.4 °F 37.2 °F 35.6 °F 66% 29.68 in 10.0 mi ESE 29.9 mph 41.4 mph N/A Thunderstorm Scattered Clouds
1:52 AM 46.4 °F 37.5 °F 35.6 °F 66% 29.69 in 10.0 mi ESE 27.6 mph 38.0 mph N/A Thunderstorm Thunderstorm
2:12 AM 46.4 °F 39.0 °F 35.6 °F 66% 29.72 in 10.0 mi East 19.6 mph 28.8 mph N/A Rain , Thunderstorm Light Thunderstorms and Rain
2:33 AM 46.4 °F 39.0 °F 35.6 °F 66% 29.70 in 10.0 mi East 19.6 mph 28.8 mph N/A Thunderstorm Thunderstorm
2:52 AM 44.6 °F 37.4 °F 33.8 °F 66% 29.71 in 10.0 mi East 16.1 mph 26.5 mph N/A Thunderstorm Thunderstorm
3:12 AM 44.6 °F 36.1 °F 33.8 °F 66% 29.69 in 10.0 mi East 21.9 mph 31.1 mph N/A   Overcast
3:33 AM 44.6 °F 35.9 °F 33.8 °F 66% 29.68 in 10.0 mi East 23.0 mph 31.1 mph N/A Thunderstorm Overcast
4:12 AM 44.6 °F 35.3 °F 33.8 °F 66% 29.64 in 10.0 mi East 26.5 mph 33.4 mph N/A Thunderstorm Overcast
4:33 AM 44.6 °F 35.3 °F 33.8 °F 66% 29.63 in 10.0 mi East 26.5 mph 35.7 mph N/A Thunderstorm Thunderstorm
4:52 AM 44.6 °F 35.7 °F 32.0 °F 61% 29.62 in 10.0 mi East 24.2 mph 35.7 mph N/A   Overcast
5:12 AM 44.6 °F 35.7 °F 30.2 °F 57% 29.62 in 10.0 mi East 24.2 mph 35.7 mph N/A Thunderstorm Overcast
5:33 AM 44.6 °F 34.7 °F 30.2 °F 57% - 10.0 mi East 29.9 mph 35.7 mph N/A   Mostly Cloudy
5:52 AM 44.6 °F 35.5 °F 32.0 °F 61% 29.63 in 10.0 mi East 25.3 mph 34.5 mph N/A Thunderstorm Thunderstorm
6:12 AM 42.8 °F 33.1 °F 32.0 °F 66% 29.63 in 10.0 mi East 25.3 mph 31.1 mph N/A Thunderstorm Overcast
6:32 AM 42.8 °F 33.8 °F 33.8 °F 70% 29.62 in 10.0 mi East 21.9 mph 28.8 mph N/A Thunderstorm Overcast
6:52 AM 42.8 °F 34.3 °F 33.8 °F 70% 29.61 in 10.0 mi East 19.6 mph 26.5 mph N/A Thunderstorm Thunderstorm
7:13 AM 42.8 °F 33.5 °F 35.6 °F 76% 29.61 in 10.0 mi East 23.0 mph 32.2 mph N/A Thunderstorm Overcast
7:32 AM 42.8 °F 34.0 °F 35.6 °F 76% 29.61 in 10.0 mi East 20.7 mph 28.8 mph N/A   Overcast
7:52 AM 42.8 °F 33.5 °F 37.4 °F 81% 29.62 in 10.0 mi East 23.0 mph 29.9 mph N/A   Overcast
8:13 AM 42.8 °F 34.5 °F 37.4 °F 81% 29.62 in 10.0 mi East 18.4 mph 29.9 mph N/A   Overcast
8:32 AM 42.8 °F 34.8 °F 39.2 °F 87% 29.63 in 10.0 mi East 17.3 mph 26.5 mph N/A   Overcast
8:52 AM 42.8 °F 34.5 °F 39.2 °F 87% 29.63 in 10.0 mi East 18.4 mph 21.9 mph N/A   Light Drizzle
9:13 AM 42.8 °F 35.1 °F 39.2 °F 87% 29.62 in 10.0 mi East 16.1 mph - N/A   Light Drizzle
9:32 AM 42.8 °F 35.1 °F 39.2 °F 87% 29.62 in 10.0 mi East 16.1 mph 24.2 mph N/A   Light Drizzle
9:52 AM 42.8 °F 34.8 °F 41.0 °F 93% 29.63 in 7.0 mi East 17.3 mph 24.2 mph N/A Rain Light Rain
10:13 AM 42.8 °F 34.8 °F 41.0 °F 93% 29.62 in 5.0 mi East 17.3 mph 23.0 mph N/A Rain Light Rain
10:32 AM 42.8 °F 34.0 °F 41.0 °F 93% 29.61 in 5.0 mi East 20.7 mph 27.6 mph N/A Rain Rain
10:52 AM 42.8 °F 34.3 °F 42.8 °F 100% 29.61 in 7.0 mi East 19.6 mph 24.2 mph N/A   Overcast
11:32 AM 44.6 °F 36.9 °F 42.8 °F 93% 29.61 in 7.0 mi East 18.4 mph 25.3 mph N/A   Overcast
11:52 AM 44.6 °F 36.9 °F 42.8 °F 93% 29.60 in 5.0 mi East 18.4 mph 26.5 mph N/A Rain Rain
12:12 PM 44.6 °F 37.2 °F 42.8 °F 93% 29.60 in 7.0 mi East 17.3 mph 24.2 mph 0.01 in Rain Light Rain
12:32 PM 44.6 °F 37.4 °F 42.8 °F 93% 29.61 in 10.0 mi East 16.1 mph 25.3 mph 0.01 in   Overcast
1:12 PM 44.6 °F 35.5 °F 44.6 °F 100% 29.58 in 10.0 mi East 25.3 mph 32.2 mph N/A   Overcast
1:33 PM 46.4 °F 39.2 °F 42.8 °F 87% 29.58 in 10.0 mi East 18.4 mph 28.8 mph N/A   Overcast
1:52 PM 46.4 °F 39.2 °F 44.6 °F 93% 29.57 in 10.0 mi East 18.4 mph 26.5 mph N/A   Overcast
2:12 PM 46.4 °F 39.5 °F 44.6 °F 93% 29.56 in 10.0 mi East 17.3 mph 21.9 mph N/A Thunderstorm Unknown
2:33 PM 46.4 °F 39.5 °F 44.6 °F 93% 29.56 in 7.0 mi East 17.3 mph - N/A Rain Rain
2:52 PM 46.4 °F 39.8 °F 44.6 °F 93% 29.55 in 7.0 mi East 16.1 mph 23.0 mph 0.01 in Rain , Thunderstorm Light Thunderstorms and Rain
3:12 PM 46.4 °F 39.2 °F 44.6 °F 93% 29.58 in 4.0 mi ESE 18.4 mph 23.0 mph N/A Rain , Thunderstorm Heavy Thunderstorms and Rain
3:52 PM 46.4 °F 39.8 °F 44.6 °F 93% 29.52 in 5.0 mi East 16.1 mph 24.2 mph 0.28 in Rain Heavy Rain
4:12 PM 46.4 °F 38.5 °F 44.6 °F 93% 29.50 in 5.0 mi East 21.9 mph 28.8 mph 0.06 in Rain , Thunderstorm Heavy Thunderstorms and Rain
4:33 PM 46.4 °F 37.5 °F 46.4 °F 100% 29.47 in 4.0 mi East 27.6 mph 33.4 mph 0.14 in Rain , Thunderstorm Heavy Thunderstorms and Rain
4:52 PM 46.4 °F 38.1 °F 44.6 °F 93% 29.46 in 7.0 mi East 24.2 mph 38.0 mph 0.16 in Rain Heavy Rain
5:12 PM 46.4 °F 37.2 °F 44.6 °F 93% 29.46 in 10.0 mi East 29.9 mph 41.4 mph N/A   Overcast
5:33 PM 46.4 °F 37.4 °F 44.6 °F 93% 29.44 in 10.0 mi East 28.8 mph 47.2 mph N/A   Overcast
5:52 PM 46.4 °F 37.5 °F 44.6 °F 93% 29.43 in 10.0 mi East 27.6 mph 36.8 mph N/A   Overcast
6:12 PM 46.4 °F 37.2 °F 44.6 °F 93% 29.35 in 7.0 mi ENE 29.9 mph 36.8 mph N/A   Drizzle
6:33 PM 46.4 °F 39.0 °F 44.6 °F 93% 29.45 in 10.0 mi East 19.6 mph 31.1 mph N/A   Overcast
6:52 PM 46.4 °F 38.7 °F 44.6 °F 93% 29.47 in 10.0 mi East 20.7 mph 28.8 mph N/A   Overcast
7:12 PM 46.4 °F 39.2 °F 44.6 °F 93% 29.47 in 10.0 mi East 18.4 mph 28.8 mph N/A   Scattered Clouds
7:33 PM 46.4 °F 38.7 °F 44.6 °F 93% 29.49 in 10.0 mi East 20.7 mph 28.8 mph N/A   Clear
7:52 PM 46.4 °F 38.5 °F 42.8 °F 87% 29.49 in 10.0 mi East 21.9 mph 27.6 mph N/A   Scattered Clouds
8:12 PM 46.4 °F 39.2 °F 42.8 °F 87% 29.50 in 10.0 mi East 18.4 mph 28.8 mph N/A   Scattered Clouds
8:33 PM 46.4 °F 39.5 °F 42.8 °F 87% 29.51 in 10.0 mi East 17.3 mph 25.3 mph N/A   Mostly Cloudy
8:52 PM 46.4 °F 39.5 °F 42.8 °F 87% 29.52 in 10.0 mi East 17.3 mph 24.2 mph N/A   Overcast
9:12 PM 46.4 °F 39.5 °F 42.8 °F 87% 29.53 in 10.0 mi East 17.3 mph 26.5 mph N/A   Overcast
9:33 PM 46.4 °F 39.2 °F 42.8 °F 87% 29.52 in 10.0 mi East 18.4 mph 29.9 mph N/A   Overcast
9:52 PM 46.4 °F 39.0 °F 44.6 °F 93% 29.52 in 10.0 mi East 19.6 mph 26.5 mph N/A   Overcast
10:12 PM 46.4 °F 38.7 °F 44.6 °F 93% 29.52 in 10.0 mi East 20.7 mph 27.6 mph N/A   Overcast
10:33 PM 46.4 °F 39.8 °F 44.6 °F 93% 29.52 in 10.0 mi East 16.1 mph 25.3 mph N/A   Overcast
10:52 PM 46.4 °F 40.1 °F 44.6 °F 93% 29.51 in 10.0 mi East 15.0 mph 23.0 mph N/A   Overcast
11:12 PM 48.2 °F - 44.6 °F 87% 29.50 in 7.0 mi East 16.1 mph 24.2 mph N/A   Overcast
11:33 PM 48.2 °F - 46.4 °F 93% 29.50 in 7.0 mi East 17.3 mph 21.9 mph N/A   Overcast